This is the latest recevied weather packets stored in our database for station/object VA3VWX-13. If no packets are shown the sender has not sent any weather packets the latest 1 day(s).
| Time | Temp. | Humidity | Pressure | Rain* | Wind** | Luminosity | Snow |
|---|---|---|---|---|---|---|---|
| 1778056414 | 6.67° C | 93% | 1009.1 hPa | 0 mm | - | - | - |
| 1778056116 | 6.67° C | 93% | 1009.3 hPa | 0 mm | - | - | - |
| 1778055823 | 6.67° C | 93% | 1009.2 hPa | 0 mm | - | - | - |
| 1778054913 | 6.67° C | 93% | 1009.1 hPa | 1.02 mm | - | - | - |
| 1778054622 | 6.67° C | 92% | 1009.2 hPa | 2.03 mm | - | - | - |
| 1778053724 | 6.67° C | 92% | 1008.7 hPa | 3.05 mm | - | - | - |
| 1778052817 | 6.67° C | 92% | 1008.5 hPa | 5.08 mm | - | - | - |
| 1778051907 | 7.22° C | 92% | 1008.4 hPa | 5.08 mm | - | - | - |
| 1778051630 | 7.22° C | 92% | 1008.6 hPa | 6.1 mm | - | - | - |
| 1778051304 | 7.22° C | 92% | 1008.6 hPa | 7.11 mm | - | - | - |
| 1778051022 | 7.22° C | 92% | 1008.8 hPa | 6.1 mm | - | - | - |
| 1778050712 | 7.22° C | 92% | 1008.9 hPa | 7.11 mm | - | - | - |
| 1778050419 | 7.22° C | 92% | 1008.8 hPa | 6.1 mm | - | - | - |
| 1778050116 | 7.22° C | 92% | 1008.9 hPa | 7.11 mm | - | - | - |
| 1778049209 | 7.22° C | 92% | 1008.6 hPa | 7.11 mm | - | - | - |
| 1778048918 | 7.22° C | 92% | 1008.7 hPa | 7.11 mm | - | - | - |
| 1778048330 | 7.78° C | 92% | 1008.7 hPa | 7.87 mm | - | - | - |
| 1778047715 | 7.78° C | 91% | 1009.1 hPa | 7.11 mm | - | - | - |
| 1778046504 | 7.78° C | 91% | 1009.1 hPa | 5.08 mm | - | - | - |
| 1778045911 | 7.78° C | 91% | 1009.3 hPa | 4.06 mm | - | - | - |
| 1778045326 | 7.78° C | 91% | 1009.4 hPa | 3.05 mm | - | - | - |
| 1778045003 | 7.78° C | 91% | 1009.6 hPa | 2.03 mm | - | - | - |
| 1778044710 | 7.78° C | 91% | 1009.7 hPa | 1.02 mm | - | - | - |
| 1778044418 | 7.78° C | 91% | 1009.7 hPa | 0 mm | - | - | - |
| 1778044116 | 7.78° C | 90% | 1009.9 hPa | 0 mm | - | - | - |
* Rain latest hour (hover to see other rain measurements)
** Current wind speed in m/s (hover to see current wind gust speed)